User: anonymous   Login
Location: Asheville, NC
(35.6000°N, 82.5500°W)
Time: 03:31:03
(UTC-04:00)
Language:

QB50P2 - Orbit

View from above orbital plane
View from above orbital plane
View from above satellite
View from above satellite

Ground track
Ground track

The orbit data is extracted from the following two-line orbital elements,

1 40032U 14033Y   18110.81947245 +.00000351 +00000-0 +44066-4 0  9994
2 40032 097.9027 025.1027 0012357 016.3955 343.7658 14.88228870207675
Epoch (UTC): 20 April 2018 19:40:02
Eccentricity: 0.0012357
inclination: 97.9027°
perigee height: 595 km
apogee height: 612 km
right ascension of ascending node: 25.1027°
argument of perigee: 16.3955°
revolutions per day: 14.88228870
mean anomaly at epoch: 343.7658°
orbit number at epoch: 20767

The dashed part of the orbit path shows where the satellite is in the earth's shadow,  

DLR